Location: Unspecified
(0.0000°N, 0.0000°E)
Time: 01:57:58
(UTC+00:00)

A-11 Canister half - Pass Details

Date: 25 November 2019
Orbit: 1526 x 1683 km, 47.3° (Epoch: 10 December)

Event Time Altitude Azimuth Distance (km) Brightness Sun altitude
Rises 21:01:33 0° 281° (W) 4,679 12.0 -44.5°
Reaches altitude 10° 21:06:16 10° 260° (W) 3,690 11.5 -45.6°
Maximum altitude 21:11:21 16° 226° (SW) 3,249 11.1 -46.7°
Drops below altitude 10° 21:16:29 10° 192° (SSW) 3,701 11.3 -47.7°
Sets 21:21:19 0° 171° (S) 4,702 11.8 -48.8°
